Location: Newark
(34.1333°N, 7.9667°W)
Time: 06:01:37
(UTC+00:00)

EO-79 - Visible Passes

Search period start: 03 June 2023 00:00
Search period end: 13 June 2023 00:00
Orbit: 578 x 593 km, 98.0° (Epoch: 02 June)

Date Brightness Start Highest point End Pass type
(mag) Time Alt. Az. Time Alt. Az. Time Alt. Az.
03 Jun ? 02:13:30 10° NNE 02:16:44 32° E 02:16:44 32° E visible
03 Jun ? 03:49:47 10° NNW 03:52:23 16° WNW 03:53:11 16° W visible
04 Jun ? 02:20:09 10° NNE 02:23:37 38° E 02:23:37 38° E visible
04 Jun ? 03:57:00 10° NW 03:59:07 14° WNW 04:00:04 13° W visible
05 Jun ? 02:26:49 10° NNE 02:30:29 47° E 02:30:29 47° E visible
05 Jun ? 04:04:26 10° NW 04:05:48 11° WNW 04:06:57 10° W visible
06 Jun ? 02:33:30 10° NNE 02:37:21 58° ENE 02:37:21 58° ENE visible
07 Jun ? 02:40:13 10° NNE 02:44:12 72° ENE 02:44:12 72° ENE visible
08 Jun ? 02:46:56 10° NNE 02:51:02 85° NNE 02:51:02 85° NNE visible
09 Jun ? 02:53:40 10° N 02:57:51 75° WNW 02:57:51 75° WNW visible
10 Jun ? 03:00:25 10° N 03:04:34 62° WNW 03:04:40 61° W visible
11 Jun ? 03:07:11 10° N 03:11:14 50° WNW 03:11:28 50° W visible
12 Jun ? 01:40:36 10° ENE 01:41:48 12° E 01:41:48 12° E visible
12 Jun ? 03:13:58 10° N 03:17:55 42° WNW 03:18:15 41° W visible
